Simultaneous Nadir Overpasses (SNOs) Predictions

Prediction of SNOs between LANDSAT-8 and NOAA-19 Satellite Orbit:

Table of predicted SNOs for the next 14.0 days since TLE Epoch: 2/19/2022
Index Date (LANDSAT-8) Time (LANDSAT-8) Lat,Lon (LANDSAT-8) SZA (LANDSAT-8 ) Date (NOAA-19) Time (NOAA-19) Lat,Lon (NOAA-19) SZA (NOAA-19 ) Distance(km) Time Diff (sec)
1 02/20/2022 16:04:40 -80.73, 153.27 87.26 02/20/2022 16:03:34 -80.71, 153.15 87.31 3.20 66
2 02/20/2022 16:54:07 80.70, -39.35 92.69 02/20/2022 16:54:38 80.69, -39.18 92.70 3.36 31
3 02/22/2022 22:27:50 -80.70, 57.21 88.12 02/22/2022 22:27:36 -80.71, 57.22 88.12 0.36 14
4 02/25/2022 04:01:32 80.71, 153.81 91.07 02/25/2022 04:00:43 80.71, 153.82 91.06 0.61 49
5 02/25/2022 04:50:59 -80.70, -38.57 88.95 02/25/2022 04:51:38 -80.71, -38.72 88.94 2.82 39
6 02/27/2022 10:24:41 80.70, 57.98 90.23 02/27/2022 10:24:44 80.71, 58.08 90.24 1.77 3
7 03/01/2022 15:58:23 -80.73, 154.81 90.57 03/01/2022 15:57:42 -80.71, 154.82 90.59 1.81 41
8 03/01/2022 16:47:50 80.70, -37.89 89.37 03/01/2022 16:48:46 80.71, -38.05 89.39 3.48 56



Historial Predications of SNOs between LANDSAT-8 and NOAA-19
